Date String (YYYY-MM-DD hh:mm:ss) UTC,Instrument flags,absolute air pressure of the measurement (hPa),sample flow rate (lpm),inlet stack bypass flow (lpm),air temperature of the measurement (°C),ambient temperature measured by the external sensor (°C),aerosol sample conditioner tube jacket temperature (°C),OPC LED temperature (°C),internal box temperature (°C),relative humidity of the measurement (%),span deviation,mass concentration of particles derived from Lorenz-Mie calculation of OPC scattering (μg/m³),mass concentration of particles derived from Lorenz-Mie calculation of OPC scattering (μg/m³),mass concentration of particles derived from Lorenz-Mie calculation of OPC scattering (μg/m³)
DateTimeUTC,F1_M11,P_M11,Q1_M11,Q2_M11,T1_M11,T2_M11,T3_M11,T4_M11,T5_M11,U1_M11,ZSPAN_M11,X2_M11,X0_M11,X1_M11
2024-04-07 18:00:00,SystemResetWarning,0819.5,4.99,000.00,018.3,017.5,000.0,027.0,020.0,009.2,0000.0,0001.07,0002.07,0000.59
2024-04-07 18:01:00,SystemResetWarning,0819.5,5.00,000.00,018.3,017.5,000.0,027.0,020.0,009.0,0000.0,0001.04,0002.05,0000.59
2024-04-07 18:02:00,SystemResetWarning,0819.5,5.00,000.00,018.3,017.5,000.0,027.0,020.0,008.9,0000.0,0001.06,0002.12,0000.59
2024-04-07 18:03:00,SystemResetWarning,0819.5,5.01,000.00,018.3,017.5,000.0,026.9,020.0,008.6,0000.0,0001.04,0002.10,0000.60
2024-04-07 18:04:00,SystemResetWarning,0819.5,5.01,000.00,018.3,017.5,000.0,026.9,020.0,008.7,0000.0,0001.05,0002.19,0000.60
2024-04-07 18:05:00,SystemResetWarning,0819.5,5.01,000.00,018.3,017.5,000.0,026.9,020.0,008.9,0000.0,0001.05,0001.97,0000.61
2024-04-07 18:06:00,SystemResetWarning,0819.5,5.01,000.00,018.3,017.5,000.0,026.9,020.0,008.9,0000.0,0001.03,0001.91,0000.61
2024-04-07 18:07:00,SystemResetWarning,0819.3,5.00,000.00,018.3,017.5,000.0,026.9,020.0,008.9,0000.0,0000.98,0001.83,0000.60
2024-04-07 18:08:00,SystemResetWarning,0819.3,5.00,000.00,018.3,017.5,000.0,026.9,020.0,008.8,0000.0,0001.00,0001.87,0000.61
2024-04-07 18:09:00,SystemResetWarning,0819.4,4.99,000.00,018.3,017.5,000.0,026.9,020.0,008.5,0000.0,0001.06,0002.03,0000.61
2024-04-07 18:10:00,SystemResetWarning,0819.5,5.00,000.00,018.3,017.5,000.0,026.9,020.0,008.5,0000.0,0001.07,0002.23,0000.60
2024-04-07 18:11:00,SystemResetWarning,0819.4,4.99,000.00,018.3,017.5,000.0,026.9,020.0,008.7,0000.0,0001.07,0003.75,0000.61
2024-04-07 18:12:00,SystemResetWarning,0819.5,5.00,000.00,018.3,017.5,000.0,026.9,020.0,008.3,0000.0,0001.09,0003.88,0000.61
2024-04-07 18:13:00,SystemResetWarning,0819.5,5.00,000.00,018.3,017.4,000.0,026.9,020.0,008.5,0000.0,0001.07,0003.84,0000.60
2024-04-07 18:14:00,SystemResetWarning,0819.6,5.01,000.00,018.3,017.4,000.0,026.9,020.0,008.5,0000.0,0001.05,0003.84,0000.59
2024-04-07 18:15:00,SystemResetWarning,0819.5,5.01,000.00,018.3,017.4,000.0,026.9,020.0,008.9,0000.0,0001.05,0003.89,0000.59
2024-04-07 18:16:00,SystemResetWarning,0819.6,4.99,000.00,018.3,017.5,000.0,026.9,020.0,008.8,0000.0,0001.08,0004.00,0000.59
2024-04-07 18:17:00,SystemResetWarning,0819.5,5.00,000.00,018.3,017.5,000.0,026.9,020.0,008.7,0000.0,0001.10,0004.09,0000.59
2024-04-07 18:18:00,SystemResetWarning,0819.6,5.00,000.00,018.3,017.5,000.0,026.9,020.0,008.6,0000.0,0001.11,0005.73,0000.59
2024-04-07 18:19:00,SystemResetWarning,0819.5,5.00,000.00,018.3,017.5,000.0,026.9,020.0,008.5,0000.0,0001.09,0006.14,0000.59
2024-04-07 18:20:00,SystemResetWarning,0819.5,4.99,000.00,018.3,017.5,000.0,026.9,020.0,008.8,0000.0,0001.05,0006.12,0000.60
2024-04-07 18:21:00,SystemResetWarning,0819.5,5.00,000.00,018.3,017.5,000.0,026.9,020.0,008.9,0000.0,0001.04,0006.10,0000.60
2024-04-07 18:22:00,SystemResetWarning,0819.3,5.00,000.00,018.3,017.5,000.0,026.9,020.0,008.9,0000.0,0001.04,0005.02,0000.60
2024-04-07 18:23:00,SystemResetWarning,0819.3,5.01,000.00,018.3,017.5,000.0,026.9,020.0,008.4,0000.0,0001.04,0004.33,0000.59
2024-04-07 18:24:00,SystemResetWarning,0819.3,5.00,000.00,018.3,017.4,000.0,026.9,020.0,008.4,0000.0,0001.08,0004.32,0000.59
2024-04-07 18:25:00,SystemResetWarning,0819.3,4.99,000.00,018.3,017.4,000.0,026.9,020.0,008.4,0000.0,0001.08,0004.87,0000.59
2024-04-07 18:26:00,SystemResetWarning,0819.3,5.00,000.00,018.3,017.4,000.0,026.9,020.0,008.6,0000.0,0001.08,0005.06,0000.60
2024-04-07 18:27:00,SystemResetWarning,0819.2,4.99,000.00,018.3,017.4,000.0,026.9,020.0,008.6,0000.0,0001.07,0004.94,0000.60
2024-04-07 18:28:00,SystemResetWarning,0819.2,5.00,000.00,018.3,017.4,000.0,026.9,020.0,008.3,0000.0,0001.06,0005.01,0000.60
2024-04-07 18:29:00,SystemResetWarning,0819.2,5.00,000.00,018.3,017.4,000.0,026.9,020.0,008.5,0000.0,0001.04,0004.36,0000.59
2024-04-07 18:30:00,SystemResetWarning,0819.2,5.00,000.00,018.3,017.4,000.0,026.9,020.0,008.3,0000.0,0001.03,0003.44,0000.59
2024-04-07 18:31:00,SystemResetWarning,0819.2,5.02,000.00,018.3,017.4,000.0,026.9,020.0,008.3,0000.0,0001.08,0003.65,0000.59
2024-04-07 18:32:00,SystemResetWarning,0819.2,5.00,000.00,018.3,017.4,000.0,026.9,020.0,007.9,0000.0,0001.11,0003.70,0000.59
2024-04-07 18:33:00,SystemResetWarning,0819.3,5.00,000.00,018.3,017.4,000.0,026.9,020.0,007.9,0000.0,0001.11,0003.75,0000.60
2024-04-07 18:34:00,SystemResetWarning,0819.2,4.99,000.00,018.3,017.4,000.0,026.9,020.0,008.5,0000.0,0001.18,0004.05,0000.61
2024-04-07 18:35:00,SystemResetWarning,0819.2,4.99,000.00,018.3,017.4,000.0,026.9,020.0,008.8,0000.0,0001.19,0004.14,0000.62
2024-04-07 18:36:00,SystemResetWarning,0819.2,5.00,000.00,018.3,017.4,000.0,026.9,020.0,008.9,0000.0,0001.18,0003.70,0000.62
2024-04-07 18:37:00,SystemResetWarning,0819.3,5.00,000.00,018.3,017.4,000.0,026.9,020.0,008.9,0000.0,0001.24,0003.89,0000.62
2024-04-07 18:38:00,SystemResetWarning,0819.3,5.00,000.00,018.3,017.4,000.0,026.9,020.0,008.8,0000.0,0001.27,0004.40,0000.63
2024-04-07 18:39:00,SystemResetWarning,0819.3,5.01,000.00,018.3,017.4,000.0,026.9,020.0,008.7,0000.0,0001.29,0005.42,0000.63
2024-04-07 18:40:00,SystemResetWarning,0819.4,5.01,000.00,018.3,017.5,000.0,026.9,020.0,008.9,0000.0,0001.35,0006.79,0000.64
2024-04-07 18:41:00,SystemResetWarning,0819.3,5.00,000.00,018.3,017.4,000.0,026.9,020.0,009.1,0000.0,0001.38,0006.90,0000.64
2024-04-07 18:42:00,SystemResetWarning,0819.3,5.00,000.00,018.3,017.4,000.0,026.9,020.0,009.0,0000.0,0001.38,0006.76,0000.63
2024-04-07 18:43:00,SystemResetWarning,0819.3,5.00,000.00,018.3,017.5,000.0,026.9,020.0,009.0,0000.0,0001.39,0006.81,0000.64
2024-04-07 18:44:00,SystemResetWarning,0819.3,5.01,000.00,018.3,017.5,000.0,026.9,020.0,008.8,0000.0,0001.39,0006.89,0000.62
2024-04-07 18:45:00,SystemResetWarning,0819.2,5.00,000.00,018.3,017.5,000.0,026.9,020.0,009.0,0000.0,0001.31,0006.63,0000.62
2024-04-07 18:46:00,SystemResetWarning,0819.3,5.00,000.00,018.3,017.5,000.0,026.9,020.0,008.9,0000.0,0001.31,0007.05,0000.61
2024-04-07 18:47:00,SystemResetWarning,0819.2,5.00,000.00,018.3,017.5,000.0,026.9,020.0,008.8,0000.0,0001.33,0007.67,0000.60
2024-04-07 18:48:00,SystemResetWarning,0819.2,4.99,000.00,018.3,017.5,000.0,026.9,020.0,008.8,0000.0,0001.26,0007.44,0000.60
2024-04-07 18:49:00,SystemResetWarning,0819.2,5.00,000.00,018.3,017.5,000.0,026.9,020.0,009.0,0000.0,0001.23,0007.06,0000.59
2024-04-07 18:50:00,SystemResetWarning,0819.2,5.01,000.00,018.3,017.5,000.0,026.9,020.0,009.2,0000.0,0001.23,0006.31,0000.59
2024-04-07 18:51:00,SystemResetWarning,0819.1,5.01,000.00,018.3,017.5,000.0,026.9,020.0,009.1,0000.0,0001.19,0004.94,0000.58
2024-04-07 18:52:00,SystemResetWarning,0819.3,5.00,000.00,018.3,017.5,000.0,026.9,020.0,008.7,0000.0,0001.24,0005.01,0000.59
2024-04-07 18:53:00,SystemResetWarning,0819.3,5.00,000.00,018.3,017.5,000.0,026.9,020.0,008.8,0000.0,0001.25,0004.71,0000.60
2024-04-07 18:54:00,SystemResetWarning,0819.2,4.99,000.00,018.3,017.5,000.0,026.9,020.0,009.2,0000.0,0001.26,0004.72,0000.60
2024-04-07 18:55:00,SystemResetWarning,0819.2,5.00,000.00,018.3,017.5,000.0,026.9,020.0,009.3,0000.0,0001.29,0004.67,0000.61
2024-04-07 18:56:00,SystemResetWarning,0819.1,5.00,000.00,018.3,017.5,000.0,026.9,020.0,009.5,0000.0,0001.33,0004.68,0000.63
2024-04-07 18:57:00,SystemResetWarning,0819.1,4.99,000.00,018.3,017.5,000.0,026.9,020.0,009.3,0000.0,0001.36,0004.60,0000.62
2024-04-07 18:58:00,SystemResetWarning,0819.1,5.01,000.00,018.3,017.5,000.0,026.9,020.0,009.1,0000.0,0001.35,0003.87,0000.64
2024-04-07 18:59:00,SystemResetWarning,0819.0,5.00,000.00,018.3,017.5,000.0,026.9,020.0,009.2,0000.0,0001.39,0003.89,0000.65
